GW3084 Weather Reports


Display with metric or nautical units.
time (UTC)temp
F
wind
direction
speed
MPH
gust
MPH
rain 1hr
in
rain 24hr
in
rain mn
in
humidity
%
barometer
mb
20260504234018 72 300 4.0 10.0 0.00 0.00 0.00 36 995.1
20260504233056 74 316 4.0 13.0 0.00 0.00 0.00 36 995.1
20260504232031 75 300 5.0 15.0 0.00 0.00 0.00 38 994.9
20260504231028 74 301 3.0 10.0 0.00 0.00 0.00 42 994.9
20260504230025 74 287 6.0 21.0 0.00 0.00 0.00 36 994.8
20260504225022 75 286 6.0 16.0 0.00 0.00 0.00 34 994.6
20260504224018 76 290 6.0 23.0 0.00 0.00 0.00 32 994.8
20260504223035 76 280 4.0 11.0 0.00 0.00 0.00 31 994.6
20260504222032 77 272 6.0 15.0 0.00 0.00 0.00 30 994.6
20260504221028 79 264 8.0 19.0 0.00 0.00 0.00 28 994.5
20260504220025 79 261 7.0 21.0 0.00 0.00 0.00 28 994.5
20260504215021 80 249 7.0 18.0 0.00 0.00 0.00 27 994.6
20260504214019 79 268 9.0 24.0 0.00 0.00 0.00 27 994.7
20260504213035 80 258 9.0 18.0 0.00 0.00 0.00 27 994.7
20260504212032 79 275 8.0 30.0 0.00 0.00 0.00 28 994.8
20260504211029 78 254 8.0 19.0 0.00 0.00 0.00 28 994.9
20260504210025 79 263 9.0 22.0 0.00 0.00 0.00 28 994.9
20260504205041 80 247 9.0 26.0 0.00 0.00 0.00 26 994.9
20260504204020 79 264 8.0 18.0 0.00 0.00 0.00 27 994.9
20260504203035 80 246 9.0 22.0 0.00 0.00 0.00 26 995.0
20260504202032 79 268 10.0 22.0 0.00 0.00 0.00 27 995.2
20260504201048 79 256 7.0 36.0 0.00 0.00 0.00 27 995.3
20260504200025 79 268 7.0 19.0 0.00 0.00 0.00 26 995.2
20260504195021 78 243 8.0 25.0 0.00 0.00 0.00 27 995.4
20260504194018 78 253 10.0 33.0 0.00 0.00 0.00 26 995.4
20260504193035 78 259 9.0 27.0 0.00 0.00 0.00 26 995.4
20260504192033 79 249 9.0 23.0 0.00 0.00 0.00 25 995.5
20260504191030 79 260 9.0 25.0 0.00 0.00 0.00 25 995.6
20260504190026 80 245 9.0 21.0 0.00 0.00 0.00 25 995.6
20260504185022 80 233 10.0 22.0 0.00 0.00 0.00 25 995.7
20260504184018 79 256 10.0 21.0 0.00 0.00 0.00 25 995.7
20260504183035 79 261 9.0 22.0 0.00 0.00 0.00 25 995.8
20260504182033 79 259 10.0 21.0 0.00 0.00 0.00 25 995.9
20260504181029 80 261 9.0 21.0 0.00 0.00 0.00 25 996.0
20260504180025 79 257 7.0 17.0 0.00 0.00 0.00 25 996.1
20260504175022 79 229 8.0 25.0 0.00 0.00 0.00 26 996.1
20260504174019 79 246 7.0 16.0 0.00 0.00 0.00 26 996.3
20260504173035 78 242 6.0 16.0 0.00 0.00 0.00 27 996.5
20260504172032 78 226 9.0 25.0 0.00 0.00 0.00 26 996.4
20260504171028 77 250 8.0 21.0 0.00 0.00 0.00 26 996.6
20260504151029 74 241 6.0 16.0 0.00 0.00 0.00 28 998.2
20260504141029 70 239 6.0 16.0 0.00 0.00 0.00 32 999.1
20260504081026 55 281 2.0 6.0 0.00 0.00 0.00 52 1002.1
20260504070104 56 282 2.0 7.0 0.00 0.00 0.00 54 1002.2
20260504050020 56 268 2.0 3.0 0.00 0.00 0.00 63 1003.1
20260504045017 56 271 2.0 4.0 0.00 0.00 0.00 63 1003.1
20260504044033 56 268 2.0 4.0 0.00 0.00 0.00 63 1003.1
20260504043030 56 270 2.0 6.0 0.00 0.00 0.00 63 1003.3
20260504042026 56 266 2.0 4.0 0.00 0.00 0.00 63 1003.2
20260504041043 56 269 2.0 8.0 0.00 0.00 0.00 64 1003.4
20260504040020 56 265 2.0 4.0 0.00 0.00 0.00 65 1003.4
20260504035017 56 267 2.0 4.0 0.00 0.00 0.00 65 1003.4
20260504034031 56 267 1.0 4.0 0.00 0.00 0.00 66 1003.5
20260504033028 55 260 1.0 3.0 0.00 0.00 0.00 66 1003.6
20260504032025 55 264 1.0 2.0 0.00 0.00 0.00 67 1003.6
20260504031021 54 255 1.0 2.0 0.00 0.00 0.00 67 1003.7
20260504030058 54 270 0.0 1.0 0.00 0.00 0.00 67 1003.7
20260504025035 54 267 0.0 1.0 0.00 0.00 0.00 67 1003.7
20260504024051 55 234 0.0 1.0 0.00 0.00 0.00 66 1003.5
20260504023048 55 208 0.0 3.0 0.00 0.00 0.00 67 1003.3
20260504022025 55 212 1.0 2.0 0.00 0.00 0.00 67 1003.4
20260504021021 54 206 1.0 4.0 0.00 0.00 0.00 69 1003.2
20260504020038 52 208 1.0 6.0 0.00 0.00 0.00 73 1003.1
20260504015055 50 214 0.0 3.0 0.00 0.00 0.00 79 1003.0
20260504014031 49 132 0.0 1.0 0.00 0.00 0.00 82 1002.9
20260504013028 49 134 1.0 2.0 0.00 0.00 0.00 82 1003.0
20260504012025 49 131 0.0 2.0 0.00 0.00 0.00 81 1003.0
20260504011043 49 126 1.0 2.0 0.00 0.00 0.00 81 1002.9
20260504010019 49 132 0.0 2.0 0.00 0.00 0.00 80 1002.9
20260504005115 50 135 1.0 3.0 0.00 0.00 0.00 78 1002.8
20260504004033 50 140 1.0 3.0 0.00 0.00 0.00 77 1003.0
20260504003028 50 136 2.0 6.0 0.00 0.00 0.00 76 1003.0
20260504002025 51 127 3.0 7.0 0.00 0.00 0.00 75 1003.1
20260504001042 51 133 2.0 7.0 0.00 0.00 0.00 74 1003.1
20260504000019 51 130 3.0 8.0 0.00 0.00 0.00 74 1003.1
20260503235035 51 150 3.0 9.0 0.00 0.00 0.00 74 1003.2